DW2843 Weather Reports


time (UTC)temp
C
wind
direction
speed
KPH
gust
KPH
rain 1hr
cm
rain 24hr
cm
rain mn
cm
humidity
%
barometer
mb
20260507232004 6 0 0.0 0.0 0.00 0.00 0.00 89 1017.4
20260507231003 7 0 0.0 0.0 0.00 0.00 0.00 89 1017.4
20260507230004 7 0 0.0 0.0 0.00 0.00 0.00 89 1017.3
20260507225005 7 0 0.0 0.0 0.00 0.00 0.00 88 1017.4
20260507223003 7 0 0.0 0.0 0.00 0.00 0.00 88 1017.5
20260507222005 8 0 0.0 0.0 0.00 0.00 0.00 88 1017.5
20260507221004 8 0 0.0 0.0 0.00 0.00 0.00 88 1017.6
20260507215004 8 0 0.0 0.0 0.00 0.00 0.00 87 1017.5
20260507214003 8 0 0.0 0.0 0.00 0.00 0.00 87 1017.5
20260507213004 8 0 0.0 0.0 0.00 0.00 0.00 87 1017.6
20260507212004 9 0 0.0 0.0 0.00 0.00 0.00 86 1017.7
20260507211005 9 0 0.0 0.0 0.00 0.00 0.00 86 1017.6
20260507210003 9 0 0.0 0.0 0.00 0.00 0.00 85 1017.6
20260507205004 9 0 0.0 0.0 0.00 0.00 0.00 85 1017.6
20260507204005 10 0 0.0 0.0 0.00 0.00 0.00 85 1017.5
20260507202005 10 0 0.0 4.8 0.00 0.00 0.00 84 1017.2
20260507201004 10 0 0.0 6.4 0.00 0.00 0.00 84 1017.1
20260507195003 10 140 1.6 14.5 0.00 0.00 0.00 83 1016.7
20260507194003 10 130 4.8 14.5 0.00 0.00 0.00 82 1016.7
20260507193004 10 132 1.6 9.7 0.00 0.00 0.00 81 1016.7
20260507192004 10 117 1.6 6.4 0.00 0.00 0.00 80 1016.7
20260507191004 10 132 1.6 9.7 0.00 0.00 0.00 80 1016.7
20260507190005 11 121 4.8 14.5 0.00 0.00 0.00 79 1016.7
20260507185004 11 0 0.0 9.7 0.00 0.00 0.00 79 1016.7
20260507184005 11 132 4.8 14.5 0.00 0.00 0.00 78 1016.6
20260507183004 11 127 4.8 14.5 0.00 0.00 0.00 77 1016.5
20260507182005 11 133 4.8 20.9 0.00 0.00 0.00 77 1016.4
20260507181004 11 137 1.6 14.5 0.00 0.00 0.00 77 1016.4
20260507180004 12 129 1.6 9.7 0.00 0.00 0.00 76 1016.2
20260507175003 12 118 4.8 19.3 0.00 0.00 0.00 75 1016.1
20260507174004 12 121 4.8 19.3 0.00 0.00 0.00 74 1016.2
20260507172004 12 122 6.4 19.3 0.00 0.00 0.00 73 1016.3
20260507170004 13 132 6.4 14.5 0.00 0.00 0.00 71 1016.1
20260507164005 13 134 4.8 16.1 0.00 0.00 0.00 70 1016.2
20260507163003 13 136 4.8 14.5 0.00 0.00 0.00 69 1016.2
20260507162004 13 135 6.4 19.3 0.00 0.00 0.00 69 1016.2
20260507161004 13 145 4.8 14.5 0.00 0.00 0.00 69 1016.2
20260507160005 14 127 4.8 19.3 0.00 0.00 0.00 68 1016.2
20260507155006 14 140 4.8 14.5 0.00 0.00 0.00 67 1016.2
20260507154005 14 145 4.8 16.1 0.00 0.00 0.00 67 1016.1
20260507153004 14 122 4.8 16.1 0.00 0.00 0.00 68 1016.0
20260507152003 14 153 4.8 19.3 0.00 0.00 0.00 69 1016.2
20260507151004 14 123 4.8 19.3 0.00 0.00 0.00 67 1016.1
20260507150004 14 144 4.8 16.1 0.00 0.00 0.00 66 1016.1
20260507145003 14 147 6.4 19.3 0.00 0.00 0.00 67 1016.3
20260507144003 14 140 4.8 16.1 0.00 0.00 0.00 68 1016.3
20260507143004 14 153 6.4 20.9 0.00 0.00 0.00 67 1016.3
20260507142004 15 156 6.4 19.3 0.00 0.00 0.00 66 1016.4
20260507141004 15 157 4.8 19.3 0.00 0.00 0.00 66 1016.5
20260507140003 15 123 1.6 14.5 0.00 0.00 0.00 65 1016.4
20260507134003 15 133 1.6 9.7 0.00 0.00 0.00 64 1016.4
20260507132004 15 141 1.6 6.4 0.00 0.00 0.00 60 1016.5
20260507131004 16 115 1.6 6.4 0.00 0.00 0.00 61 1016.5
20260507130004 16 84 1.6 14.5 0.00 0.00 0.00 58 1016.5
20260507125005 16 112 1.6 6.4 0.00 0.00 0.00 62 1016.5
20260507124004 15 122 1.6 6.4 0.00 0.00 0.00 61 1016.5
20260507123005 16 136 4.8 14.5 0.00 0.00 0.00 58 1016.5
20260507122005 16 146 4.8 14.5 0.00 0.00 0.00 61 1016.6
20260507121004 16 124 4.8 11.3 0.00 0.00 0.00 64 1016.7
20260507120004 15 147 4.8 11.3 0.00 0.00 0.00 64 1016.7
20260507115003 14 135 4.8 14.5 0.00 0.00 0.00 68 1016.8
20260507114003 13 115 4.8 14.5 0.00 0.00 0.00 68 1016.8
20260507113004 13 70 1.6 14.5 0.00 0.00 0.00 67 1016.9
20260507112004 13 108 1.6 9.7 0.00 0.00 0.00 68 1016.9
20260507111004 14 132 1.6 14.5 0.00 0.00 0.00 66 1017.0
20260507110004 14 100 1.6 6.4 0.00 0.00 0.00 70 1017.1
20260507105004 13 123 1.6 11.3 0.00 0.00 0.00 69 1017.1
20260507104006 13 120 1.6 6.4 0.00 0.00 0.00 70 1017.0
20260507103006 13 128 1.6 9.7 0.00 0.00 0.00 68 1017.1
20260507102007 14 131 1.6 9.7 0.00 0.03 0.00 67 1017.1
20260507101004 14 127 1.6 11.3 0.00 0.03 0.00 66 1017.1
20260507100006 14 127 1.6 9.7 0.00 0.03 0.00 69 1017.0
20260507095005 13 139 4.8 19.3 0.00 0.03 0.00 70 1016.9
20260507094005 13 128 1.6 14.5 0.00 0.03 0.00 72 1017.0
20260507093004 12 66 1.6 6.4 0.00 0.03 0.00 72 1017.0
20260507092005 12 46 1.6 9.7 0.00 0.03 0.00 72 1016.9
20260507091005 12 0 0.0 9.7 0.00 0.05 0.00 73 1016.9
20260507090011 12 84 1.6 6.4 0.00 0.05 0.00 73 1016.9
20260507085005 12 122 1.6 6.4 0.00 0.05 0.00 77 1017.0
20260507084005 11 80 1.6 6.4 0.00 0.05 0.00 78 1016.9
20260507083005 11 76 1.6 6.4 0.00 0.05 0.00 77 1016.9
20260507080005 11 0 0.0 1.6 0.00 0.05 0.00 76 1016.7
20260507075004 11 117 1.6 6.4 0.00 0.05 0.00 77 1016.7
20260507074004 11 69 1.6 6.4 0.00 0.05 0.00 77 1016.6
20260507073004 11 135 1.6 9.7 0.00 0.05 0.00 79 1016.6
20260507072005 10 138 1.6 9.7 0.00 0.05 0.00 82 1016.5
20260507065004 8 0 0.0 6.4 0.00 0.05 0.00 89 1016.5
20260507064005 8 0 0.0 6.4 0.00 0.05 0.00 90 1016.5
20260507063005 7 0 0.0 6.4 0.00 0.05 0.00 91 1016.4
20260507062005 7 0 0.0 6.4 0.00 0.05 0.00 91 1016.4
20260507061005 7 0 0.0 4.8 0.00 0.05 0.00 92 1016.4
20260507060006 7 0 0.0 1.6 0.00 0.05 0.00 92 1016.2
20260507055005 7 0 0.0 1.6 0.00 0.05 0.00 92 1016.3
20260507054005 7 0 0.0 4.8 0.00 0.05 0.00 92 1016.1
20260507053006 7 0 0.0 1.6 0.00 0.05 0.00 92 1016.0
20260507052004 6 0 0.0 4.8 0.00 0.05 0.00 92 1016.0
20260507051004 6 0 0.0 4.8 0.00 0.05 0.00 92 1016.0
20260507050005 6 0 0.0 0.0 0.00 0.05 0.00 92 1015.9
20260507045004 6 0 0.0 0.0 0.00 0.05 0.00 92 1015.8
20260507043004 6 0 0.0 0.0 0.00 0.05 0.00 92 1015.7
20260507042005 6 0 0.0 0.0 0.00 0.05 0.00 92 1015.7
20260507041004 6 0 0.0 0.0 0.00 0.05 0.00 92 1015.7
20260507040005 6 0 0.0 0.0 0.00 0.05 0.00 92 1015.6
20260507033004 7 0 0.0 0.0 0.00 0.05 0.00 92 1015.6
20260507032005 7 0 0.0 0.0 0.00 0.05 0.00 92 1015.6
20260507031004 7 0 0.0 1.6 0.00 0.05 0.00 92 1015.6
20260507030006 7 0 0.0 0.0 0.00 0.05 0.00 92 1015.6
20260507025005 7 0 0.0 0.0 0.00 0.05 0.00 92 1015.5
20260507024004 7 0 0.0 1.6 0.00 0.05 0.00 92 1015.5
20260507023006 7 0 0.0 1.6 0.00 0.05 0.00 92 1015.6
20260507022005 7 0 0.0 0.0 0.00 0.05 0.00 92 1015.5
20260507021005 7 0 0.0 0.0 0.00 0.05 0.00 92 1015.5
20260507020007 7 0 0.0 0.0 0.00 0.05 0.00 91 1015.6
20260507015005 7 0 0.0 0.0 0.00 0.05 0.00 91 1015.4
20260507014005 7 0 0.0 0.0 0.00 0.05 0.00 91 1015.4
20260507012006 7 0 0.0 0.0 0.00 0.05 0.00 91 1015.4
20260507010005 7 0 0.0 1.6 0.00 0.05 0.00 91 1015.4
20260507005005 7 0 0.0 1.6 0.00 0.05 0.00 91 1015.4
20260507004005 7 0 0.0 0.0 0.00 0.05 0.00 91 1015.4
20260507003005 7 0 0.0 0.0 0.00 0.05 0.00 91 1015.3
20260507002004 7 0 0.0 0.0 0.00 0.05 0.00 91 1015.3
20260507001006 7 0 0.0 4.8 0.00 0.05 0.00 91 1015.4
20260507000005 7 0 0.0 1.6 0.00 0.05 0.00 90 1015.5
20260506235004 7 0 0.0 0.0 0.00 0.05 0.05 90 1015.5
20260506234006 7 0 0.0 1.6 0.00 0.05 0.05 90 1015.5